• Join FlightAware (Why Join?)
  • Login
  • US Flag 
02:24PM EST


 

Airport Tracker/Info


-or-


 

Live Flight TrackerFlight Track Log ✈ N46265 ✈ 25-Apr-2013 ✈ X23 - KLEE

Flight Track Log - Related Links

Times and Time Zones

All times are in EDT time to prevent confusion due to time zone crossing. See the N46265 flight status page for this flight to view local times or setup timezone preferences in your user account.

Time Position Orientation Groundspeed Altitude Reporting Facility
EDT Latitude Longitude Course Direction KTS MPH feet Rate Location/Type
08:35AM 28.9500 -81.6667 221° Southwest 73 84 1,200  Level Orlando TRACON
08:36AM 28.9333 -81.6833 221° Southwest 63 72 1,600 526 Climbing Orlando TRACON
08:37AM 28.9167 -81.7000 221° Southwest 70 81 2,200 500 Climbing Orlando TRACON
08:38AM 28.9000 -81.7000 180° South 74 85 2,600 400 Climbing Orlando TRACON
08:39AM 28.8833 -81.6833 139° Southeast 94 108 3,000 200 Climbing Orlando TRACON
08:40AM 28.8667 -81.6500 120° Southeast 99 114 3,000  Level Orlando TRACON
08:41AM 28.8667 -81.6167 90° East 101 116 3,000  Level Orlando TRACON
08:42AM 28.8500 -81.6000 139° Southeast 98 113 3,000  Level Orlando TRACON
08:43AM 28.8500 -81.5667 90° East 100 115 3,000  Level Orlando TRACON
08:44AM 28.8333 -81.5333 120° Southeast 98 113 3,000  Level Orlando TRACON
08:45AM 28.8167 -81.5000 120° Southeast 98 113 3,000  Level Orlando TRACON
08:46AM 28.8167 -81.4833 90° East 99 114 3,000 48 Level Orlando TRACON
08:47AM 28.8000 -81.4500 120° Southeast 98 113 3,100  Climbing Orlando TRACON
08:48AM 28.7833 -81.4167 120° Southeast 98 113 3,000 -52 Descending Orlando TRACON
08:49AM 28.7667 -81.4000 139° Southeast 98 113 3,000  Level Orlando TRACON
08:50AM 28.7667 -81.3667 90° East 102 117 3,000  Level Orlando TRACON
08:51AM 28.7500 -81.3333 120° Southeast 101 116 3,000  Level Orlando TRACON
08:52AM 28.7333 -81.3167 139° Southeast 99 114 3,000  Level Orlando TRACON
08:53AM 28.7333 -81.2833 90° East 90 104 3,000  Level Orlando TRACON
08:54AM 28.7333 -81.2500 90° East 92 106 3,000  Level Orlando TRACON
08:55AM 28.7333 -81.2167 90° East 97 112 3,000  Level Orlando TRACON
08:56AM 28.7333 -81.1833 90° East 98 113 3,000 50 Level Orlando TRACON
08:57AM 28.7333 -81.1667 90° East 97 112 3,100 100 Climbing Orlando TRACON
08:58AM 28.7167 -81.1333 120° Southeast 99 114 3,200  Climbing Orlando TRACON
08:59AM 28.7000 -81.1167 139° Southeast 116 133 3,100 -50 Descending Orlando TRACON
09:00AM 28.6833 -81.0833 120° Southeast 101 116 3,100  Level Orlando TRACON
09:01AM 28.6667 -81.0667 139° Southeast 100 115 3,100  Level Orlando TRACON
09:02AM 28.6500 -81.0333 120° Southeast 96 110 3,100  Level Orlando TRACON
09:03AM 28.6333 -81.0167 139° Southeast 96 110 3,100  Level Orlando TRACON
09:04AM 28.6167 -80.9833 120° Southeast 99 114 3,100  Level Orlando TRACON
09:05AM 28.6000 -80.9667 139° Southeast 99 114 3,100  Level Orlando TRACON
09:06AM 28.5833 -80.9333 120° Southeast 100 115 3,100 50 Level Orlando TRACON
09:07AM 28.5667 -80.9167 139° Southeast 102 117 3,200 52 Climbing Orlando TRACON
09:08AM 28.5333 -80.9167 180° South 98 113 3,200 -53 Level Orlando TRACON
09:09AM 28.5167 -80.9167 180° South 102 117 3,100 -48 Descending Orlando TRACON
09:10AM 28.4833 -80.9000 156° South 100 115 3,100  Level Orlando TRACON
09:11AM 28.4500 -80.9000 180° South 101 116 3,100  Level Orlando TRACON
09:12AM 28.4167 -80.9000 180° South 99 114 3,100  Level Orlando TRACON
09:13AM 28.4000 -80.9000 180° South 97 112 3,100 50 Level Orlando TRACON
09:14AM 28.3667 -80.9000 180° South 99 114 3,200  Climbing Orlando TRACON
09:15AM 28.3500 -80.8833 139° Southeast 100 115 3,100 -150 Descending Orlando TRACON
09:16AM 28.3333 -80.8667 139° Southeast 102 117 2,900 -333 Descending Orlando TRACON
09:18AM 28.3333 -80.8167 90° East 102 117 2,400 -333 Descending Orlando TRACON
09:19AM 28.3500 -80.8000 41° Northeast 102 117 2,200 -165 Descending Orlando TRACON
09:19AM 28.3667 -80.8000 360° North 99 114 2,100  Descending Orlando TRACON
09:20AM 28.4000 -80.8000 360° North 91 105 2,200 -95 Climbing Orlando TRACON
09:21AM 28.4333 -80.8000 360° North 92 106 1,900 -474 Descending Orlando TRACON
09:22AM 28.4500 -80.8000 360° North 102 117 1,300 -550 Descending Orlando TRACON
09:23AM 28.4833 -80.8000 360° North 95 109 800 -50 Descending Orlando TRACON
09:24AM 28.4833 -80.8167 270° West 91 105 1,200 500 Climbing Orlando TRACON
09:25AM 28.4667 -80.8500 240° Southwest 92 106 1,800 496 Climbing Orlando TRACON
09:26AM 28.4667 -80.8833 270° West 92 106 2,200 446 Climbing Orlando TRACON
09:27AM 28.4500 -80.9000 221° Southwest 91 105 2,700 400 Climbing Orlando TRACON
09:28AM 28.4500 -80.9333 270° West 94 108 3,000 368 Climbing Orlando TRACON
09:29AM 28.4500 -80.9667 270° West 93 107 3,400 450 Climbing Orlando TRACON
09:30AM 28.4333 -80.9833 221° Southwest 94 108 3,900 347 Climbing Orlando TRACON
09:31AM 28.4167 -81.0167 240° Southwest 101 116 4,100 142 Climbing Orlando TRACON
09:32AM 28.4167 -81.0500 270° West 97 112 4,200  Climbing Orlando TRACON
09:33AM 28.4167 -81.0833 270° West 97 112 4,100 -50 Descending Orlando TRACON
09:34AM 28.4167 -81.1167 270° West 99 114 4,100  Level Orlando TRACON
09:35AM 28.4167 -81.1500 270° West 97 112 4,100 50 Level Orlando TRACON
09:37AM 28.4167 -81.1667 270° West 95 109 4,200 50 Climbing Orlando TRACON
09:37AM 28.4167 -81.2000 270° West 93 107 4,200 -50 Level Orlando TRACON
09:39AM 28.4167 -81.2333 270° West 98 113 4,100 -52 Descending Orlando TRACON
09:39AM 28.4333 -81.2667 300° West 95 109 4,100 -200 Level Orlando TRACON
09:41AM 28.4333 -81.3000 270° West 108 124 3,700 -381 Descending Orlando TRACON
09:42AM 28.4333 -81.3333 270° West 108 124 3,300 -300 Descending Orlando TRACON
09:43AM 28.4500 -81.3667 300° West 101 116 3,100 -100 Descending Orlando TRACON
09:44AM 28.4500 -81.3833 270° West 94 108 3,100 -149 Level Orlando TRACON
09:45AM 28.4500 -81.4167 270° West 101 116 2,800 -365 Descending Orlando TRACON
09:45AM 28.4333 -81.4500 240° Southwest 109 125 2,400 -368 Descending Orlando TRACON
09:46AM 28.4500 -81.4833 300° West 114 131 2,100 -149 Descending Orlando TRACON
09:47AM 28.4667 -81.5000 319° Northwest 96 110 2,100 47 Level Orlando TRACON
09:49AM 28.4833 -81.5333 300° West 95 109 2,200  Climbing Orlando TRACON
09:49AM 28.4833 -81.5500 270° West 94 108 2,100 -53 Descending Orlando TRACON
09:50AM 28.5000 -81.5833 300° West 95 109 2,100  Level Orlando TRACON
09:51AM 28.5000 -81.6167 270° West 93 107 2,100  Level Orlando TRACON
09:52AM 28.5167 -81.6333 319° Northwest 97 112 2,100  Level Orlando TRACON
09:53AM 28.5333 -81.6667 300° West 93 107 2,100  Level Orlando TRACON
09:54AM 28.5333 -81.7000 270° West 95 109 2,100  Level Orlando TRACON
09:55AM 28.5500 -81.7333 300° West 94 108 2,100  Level Orlando TRACON
09:56AM 28.5500 -81.7500 270° West 98 113 2,100  Level Orlando TRACON
09:57AM 28.5667 -81.7833 300° West 95 109 2,100  Level Orlando TRACON
09:58AM 28.5667 -81.8167 270° West 94 108 2,100  Level Orlando TRACON
09:59AM 28.5833 -81.8333 319° Northwest 101 116 2,100  Level Orlando TRACON